Weather History for KOWB - June, 2014

Change the Weather History Date:

Monday, June 9, 2014

  Actual Average Record
Temperature  
Mean Temperature 70 °F -  
Max Temperature 74 °F 85 °F 98 °F (1953)
Min Temperature 66 °F 62 °F 47 °F (1980)
Cooling Degree Days 5    
Growing Degree Days 20 (Base 50)    
Moisture  
Dew Point 63 °F    
Average Humidity 78    
Maximum Humidity 100    
Minimum Humidity 62    
Precipitation  
Precipitation 0.00 in - - ()
Sea Level Pressure  
Sea Level Pressure 29.90 in    
Wind  
Wind Speed 5 mph (ESE)    
Max Wind Speed 13 mph    
Max Gust Speed -    
Visibility 10 miles    
Events Rain    
Averages and records for this station are not official NWS values.
T = Trace of Precipitation, MM = Missing Value Source: NWS Daily Summary

Daily Weather History Graph

Daily Weather History Graph

Search for Another Location

Airport or City:

Trip Planner

Search our weather history database for the weather conditions in past years. The results will help you decide how hot, cold, wet, or windy it might be!

Date:

Astronomy

Jun. 09, 2014 Rise Set
Actual Time 5:26 AM CDT 8:09 PM CDT
Civil Twilight 4:55 AM CDT 8:40 PM CDT
Nautical Twilight 4:16 AM CDT 9:19 PM CDT
Astronomical Twilight 3:32 AM CDT 10:03 PM CDT
Moon 4:33 PM CDT (6/9) 2:49 AM CDT (6/9)
Length of Visible Light 15h 45m
Length of Day
14h 43m
Waxing Gibbous, 85% of the Moon is Illuminated
Jun 9
Waxing Gibbous
Jun 12
Full
Jun 19
Last Quarter
Jun 27
New
Jul 5
First Quarter

Hourly Weather History & Observations

Time (CDT) Temp. Dew Point Humidity Pressure Visibility Wind Dir Wind Speed Gust Speed Precip Events Conditions
12:56 AM 66.9 °F 63.9 °F 90% 29.96 in 10.0 mi Calm Calm - N/A   Scattered Clouds
1:56 AM 68.0 °F 64.9 °F 90% 29.96 in 10.0 mi Calm Calm - N/A   Mostly Cloudy
2:56 AM 66.9 °F 66.9 °F 100% 29.95 in 10.0 mi Calm Calm - 0.00 in Rain Light Rain
3:56 AM 66.9 °F 66.9 °F 100% 29.94 in 9.0 mi Calm Calm - 0.00 in Rain Light Rain
4:56 AM 66.9 °F 65.8 °F 96% 29.90 in 10.0 mi East 5.8 mph - 0.00 in   Clear
5:56 AM 66.9 °F 64.9 °F 93% 29.91 in 10.0 mi ESE 4.6 mph - 0.00 in   Mostly Cloudy
6:56 AM 66.9 °F 63.9 °F 90% 29.91 in 10.0 mi ESE 5.8 mph - N/A   Mostly Cloudy
7:56 AM 68.9 °F 63.0 °F 81% 29.91 in 10.0 mi East 6.9 mph - N/A   Mostly Cloudy
8:56 AM 70.9 °F 63.0 °F 76% 29.91 in 10.0 mi East 8.1 mph - N/A   Mostly Cloudy
9:56 AM 70.9 °F 61.0 °F 71% 29.92 in 10.0 mi ENE 9.2 mph - N/A   Mostly Cloudy
10:56 AM 72.0 °F 61.0 °F 68% 29.95 in 10.0 mi ESE 8.1 mph - N/A   Mostly Cloudy
11:56 AM 72.9 °F 61.0 °F 66% 29.94 in 10.0 mi SE 11.5 mph - N/A   Mostly Cloudy
12:56 PM 72.9 °F 61.0 °F 66% 29.92 in 10.0 mi SE 9.2 mph - N/A   Mostly Cloudy
2:56 PM 72.9 °F 61.0 °F 66% 29.89 in 10.0 mi SSE 8.1 mph - N/A   Overcast
3:56 PM 73.9 °F 61.9 °F 66% 29.87 in 10.0 mi East 10.4 mph - N/A   Mostly Cloudy
4:56 PM 74.8 °F 61.0 °F 62% 29.85 in 10.0 mi East 9.2 mph - N/A   Partly Cloudy
5:56 PM 74.8 °F 61.9 °F 64% 29.84 in 10.0 mi East 12.7 mph - N/A   Scattered Clouds
6:56 PM 73.9 °F 61.9 °F 66% 29.86 in 10.0 mi SE 9.2 mph - N/A   Scattered Clouds
7:56 PM 72.9 °F 63.0 °F 71% 29.86 in 10.0 mi ESE 8.1 mph - 0.00 in   Scattered Clouds
8:56 PM 72.0 °F 63.0 °F 73% 29.84 in 10.0 mi ESE 6.9 mph - N/A   Overcast
10:56 PM 70.0 °F 63.9 °F 81% 29.84 in 10.0 mi ESE 9.2 mph - 0.00 in Rain Light Rain
11:56 PM 70.0 °F 64.9 °F 84% 29.82 in 10.0 mi East 9.2 mph - 0.00 in Rain Light Rain